TimeCST,TemperatureF,Dew PointF,Humidity,Sea Level PressureIn,VisibilityMPH,Wind Direction,Wind SpeedMPH,Gust SpeedMPH,PrecipitationIn,Events,Conditions,WindDirDegrees,DateUTC
12:53 AM,30.9,21.9,69,30.25,10.0,ENE,20.7,25.3,N/A,,Overcast,70,2012-12-26 06:53:00
1:53 AM,30.0,21.0,69,30.24,10.0,ENE,18.4,-,N/A,,Overcast,60,2012-12-26 07:53:00
2:51 AM,28.4,21.2,74,30.18,10.0,NE,16.1,23.0,N/A,,Overcast,50,2012-12-26 08:51:00
2:53 AM,28.9,21.0,72,30.21,10.0,NE,17.3,24.2,N/A,,Overcast,50,2012-12-26 08:53:00
3:53 AM,28.9,19.9,69,30.20,10.0,NE,13.8,-,N/A,,Overcast,40,2012-12-26 09:53:00
4:53 AM,28.9,19.9,69,30.17,10.0,NE,16.1,-,N/A,,Overcast,40,2012-12-26 10:53:00
5:53 AM,28.9,21.0,72,30.16,10.0,NE,13.8,-,N/A,,Overcast,40,2012-12-26 11:53:00
6:53 AM,30.0,23.0,75,30.14,10.0,NE,16.1,28.8,N/A,,Overcast,40,2012-12-26 12:53:00
7:53 AM,30.0,23.0,75,30.12,10.0,NE,17.3,27.6,N/A,,Overcast,50,2012-12-26 13:53:00
8:53 AM,30.9,23.0,72,30.13,10.0,NE,19.6,26.5,N/A,,Overcast,50,2012-12-26 14:53:00
9:53 AM,30.9,21.0,67,30.13,10.0,NE,19.6,29.9,N/A,,Overcast,50,2012-12-26 15:53:00
10:53 AM,30.9,19.9,64,30.11,10.0,NE,15.0,25.3,N/A,,Overcast,40,2012-12-26 16:53:00
11:22 AM,30.2,21.2,69,30.07,10.0,NNE,19.6,27.6,N/A,,Overcast,30,2012-12-26 17:22:00
11:53 AM,30.9,21.0,67,30.08,10.0,NNE,13.8,24.2,N/A,,Overcast,20,2012-12-26 17:53:00
12:53 PM,30.9,21.9,69,30.07,2.5,NNE,18.4,26.5,N/A,Snow,Light Snow,20,2012-12-26 18:53:00
1:02 PM,30.2,24.8,80,30.03,7.0,NNE,15.0,25.3,0.00,Snow,Light Snow,30,2012-12-26 19:02:00
1:53 PM,30.9,23.0,72,30.04,7.0,NE,21.9,29.9,0.00,,Overcast,40,2012-12-26 19:53:00
2:53 PM,30.9,21.9,69,30.05,10.0,NE,18.4,-,N/A,,Overcast,40,2012-12-26 20:53:00
3:53 PM,30.9,21.0,67,30.07,10.0,NNE,17.3,24.2,N/A,,Overcast,20,2012-12-26 21:53:00
4:53 PM,30.9,21.0,67,30.09,10.0,NNE,13.8,23.0,N/A,,Overcast,20,2012-12-26 22:53:00
5:53 PM,28.9,21.9,75,30.10,10.0,North,11.5,-,N/A,,Overcast,350,2012-12-26 23:53:00
6:53 PM,28.9,21.9,75,30.10,10.0,North,9.2,-,N/A,,Overcast,350,2012-12-27 00:53:00
7:53 PM,28.0,21.0,75,30.10,10.0,North,13.8,21.9,N/A,,Overcast,350,2012-12-27 01:53:00
8:53 PM,28.0,19.9,72,30.10,10.0,North,12.7,-,N/A,,Overcast,350,2012-12-27 02:53:00
9:51 PM,26.6,19.4,74,30.08,10.0,NNW,11.5,-,N/A,,Overcast,330,2012-12-27 03:51:00
9:53 PM,27.0,19.0,72,30.11,10.0,NNW,9.2,-,N/A,,Overcast,340,2012-12-27 03:53:00
10:30 PM,26.6,19.4,74,30.09,10.0,NNW,9.2,-,N/A,,Overcast,330,2012-12-27 04:30:00
10:53 PM,27.0,19.0,72,30.12,10.0,NNW,10.4,-,N/A,,Overcast,340,2012-12-27 04:53:00
11:53 PM,27.0,19.9,75,30.11,10.0,NNW,12.7,-,N/A,,Overcast,340,2012-12-27 05:53:00